Previsão horária em Plesna

Hoje, 7 Março, Domingo

Tempo Temperatura Precipitação Vento Pressão Humidade
00:00 -1°C° 0 mm 11 m/s 765 mmHg 76%
01:00 -1°C° 0 mm 11 m/s 764 mmHg 75%
02:00 -2°C° 0 mm 11 m/s 764 mmHg 78%
03:00 -2°C° 0 mm 12 m/s 763 mmHg 82%
04:00 -2°C° 0 mm 12 m/s 763 mmHg 86%
05:00 -2°C° 0.1 mm 12 m/s 762 mmHg 89%
06:00 -2°C° 0.1 mm 12 m/s 762 mmHg 92%
07:00 -2°C° 0 mm 11 m/s 761 mmHg 93%
08:00 -2°C° 0.1 mm 12 m/s 761 mmHg 93%
09:00 -2°C° 0.1 mm 12 m/s 761 mmHg 93%
10:00 -2°C° 0.1 mm 12 m/s 761 mmHg 94%
11:00 -2°C° 0.1 mm 12 m/s 761 mmHg 92%
12:00 -1°C° 0.1 mm 12 m/s 761 mmHg 91%
13:00 -1°C° 0 mm 12 m/s 760 mmHg 92%
14:00 0°C° 0.4 mm 10 m/s 760 mmHg 93%
15:00 0°C° 0.4 mm 8 m/s 760 mmHg 93%
16:00 -1°C° 0.4 mm 6 m/s 760 mmHg 94%
17:00 -1°C° 0.2 mm 6 m/s 760 mmHg 88%
18:00 -1°C° 0.2 mm 5 m/s 760 mmHg 83%
19:00 -1°C° 0.2 mm 4 m/s 761 mmHg 77%
20:00 -1°C° 0 mm 5 m/s 761 mmHg 72%
21:00 -1°C° 0 mm 5 m/s 762 mmHg 68%
22:00 -2°C° 0 mm 5 m/s 762 mmHg 64%
23:00 -2°C° 0 mm 5 m/s 762 mmHg 64%

Amanhã, 8 Março, Segunda-feira

Tempo Temperatura Precipitação Vento Pressão Humidade
00:00 -2°C° 0 mm 5 m/s 763 mmHg 64%
01:00 -2°C° 0 mm 5 m/s 763 mmHg 65%
02:00 -2°C° 0 mm 5 m/s 763 mmHg 65%
03:00 -2°C° 0 mm 5 m/s 764 mmHg 65%
04:00 -2°C° 0 mm 5 m/s 764 mmHg 66%
05:00 -2°C° 0 mm 5 m/s 764 mmHg 65%
06:00 -2°C° 0 mm 5 m/s 764 mmHg 65%
07:00 -2°C° 0 mm 5 m/s 765 mmHg 64%
08:00 -1°C° 0 mm 5 m/s 765 mmHg 61%
09:00 -1°C° 0 mm 5 m/s 766 mmHg 57%
10:00 0°C° 0 mm 5 m/s 766 mmHg 54%
11:00 0°C° 0 mm 5 m/s 766 mmHg 53%
12:00 0°C° 0 mm 5 m/s 767 mmHg 53%
13:00 0°C° 0 mm 5 m/s 767 mmHg 52%
14:00 0°C° 0 mm 4 m/s 767 mmHg 53%
15:00 0°C° 0 mm 4 m/s 767 mmHg 54%
16:00 -1°C° 0 mm 4 m/s 767 mmHg 55%
17:00 -1°C° 0 mm 3 m/s 767 mmHg 59%
18:00 -1°C° 0 mm 2 m/s 767 mmHg 63%
19:00 -2°C° 0 mm 2 m/s 767 mmHg 66%
20:00 0°C° 0 mm 1 m/s 767 mmHg 66%
21:00 0°C° 0 mm 1 m/s 767 mmHg 65%
22:00 -1°C° 0 mm 0 m/s 767 mmHg 65%
23:00 0°C° 0 mm 1 m/s 767 mmHg 65%

Depois de amanhã, 9 Março, Terça-feira

Tempo Temperatura Precipitação Vento Pressão Humidade
00:00 0°C° 0 mm 1 m/s 767 mmHg 65%
01:00 -2°C° 0 mm 2 m/s 767 mmHg 65%
02:00 -2°C° 0 mm 2 m/s 766 mmHg 65%
03:00 -2°C° 0 mm 2 m/s 766 mmHg 65%
04:00 -2°C° 0 mm 2 m/s 766 mmHg 65%
05:00 -2°C° 0 mm 2 m/s 766 mmHg 66%
06:00 -2°C° 0 mm 2 m/s 766 mmHg 66%
07:00 -2°C° 0 mm 2 m/s 766 mmHg 66%
08:00 -1°C° 0 mm 2 m/s 766 mmHg 60%
09:00 -1°C° 0 mm 2 m/s 766 mmHg 53%
10:00 +1°C° 0 mm 2 m/s 766 mmHg 47%
11:00 +2°C° 0 mm 2 m/s 766 mmHg 43%
12:00 +3°C° 0 mm 2 m/s 765 mmHg 38%
13:00 +4°C° 0 mm 1 m/s 765 mmHg 34%
14:00 +4°C° 0 mm 1 m/s 765 mmHg 35%
15:00 +4°C° 0 mm 1 m/s 765 mmHg 36%
16:00 +4°C° 0 mm 1 m/s 764 mmHg 37%
17:00 +3°C° 0 mm 1 m/s 765 mmHg 41%
18:00 +2°C° 0 mm 1 m/s 765 mmHg 45%
19:00 -1°C° 0 mm 2 m/s 765 mmHg 50%
20:00 -1°C° 0 mm 2 m/s 765 mmHg 51%
21:00 -2°C° 0 mm 2 m/s 765 mmHg 52%
22:00 -2°C° 0 mm 2 m/s 765 mmHg 53%
23:00 -2°C° 0 mm 2 m/s 765 mmHg 53%

10 Março, Quarta-feira

Tempo Temperatura Precipitação Vento Pressão Humidade
00:00 -2°C° 0 mm 2 m/s 765 mmHg 54%
01:00 -2°C° 0 mm 2 m/s 765 mmHg 54%
02:00 -2°C° 0 mm 2 m/s 765 mmHg 54%
03:00 -2°C° 0 mm 2 m/s 765 mmHg 55%
04:00 -2°C° 0 mm 2 m/s 765 mmHg 55%
05:00 -2°C° 0 mm 2 m/s 765 mmHg 55%
06:00 -2°C° 0 mm 2 m/s 765 mmHg 55%
07:00 -2°C° 0 mm 2 m/s 765 mmHg 54%
08:00 +1°C° 0 mm 1 m/s 765 mmHg 50%
09:00 +3°C° 0 mm 1 m/s 766 mmHg 47%
10:00 +4°C° 0 mm 1 m/s 766 mmHg 43%
11:00 +5°C° 0 mm 1 m/s 766 mmHg 41%
12:00 +5°C° 0 mm 1 m/s 766 mmHg 39%
13:00 +6°C° 0 mm 1 m/s 766 mmHg 36%
14:00 +6°C° 0 mm 1 m/s 766 mmHg 38%
15:00 +6°C° 0 mm 1 m/s 765 mmHg 40%
16:00 +4°C° 0 mm 2 m/s 765 mmHg 42%
17:00 +3°C° 0 mm 2 m/s 765 mmHg 45%
18:00 +1°C° 0 mm 3 m/s 764 mmHg 49%
19:00 -1°C° 0 mm 4 m/s 764 mmHg 53%
20:00 -1°C° 0 mm 4 m/s 764 mmHg 53%
21:00 -1°C° 0 mm 5 m/s 764 mmHg 54%
22:00 -2°C° 0 mm 6 m/s 763 mmHg 54%
23:00 -2°C° 0 mm 6 m/s 763 mmHg 57%

11 Março, Quinta-feira

Tempo Temperatura Precipitação Vento Pressão Humidade
00:00 -2°C° 0 mm 7 m/s 762 mmHg 59%
01:00 -2°C° 0 mm 7 m/s 761 mmHg 62%
02:00 -2°C° 0 mm 8 m/s 760 mmHg 67%
03:00 -1°C° 0 mm 8 m/s 759 mmHg 72%
04:00 -1°C° 0 mm 9 m/s 758 mmHg 77%
05:00 -1°C° 0.1 mm 9 m/s 757 mmHg 76%
06:00 -1°C° 0.1 mm 9 m/s 756 mmHg 76%
07:00 0°C° 0.1 mm 10 m/s 754 mmHg 75%
08:00 0°C° 1 mm 10 m/s 754 mmHg 81%
09:00 -1°C° 1 mm 11 m/s 753 mmHg 86%
10:00 -1°C° 1 mm 12 m/s 752 mmHg 92%
11:00 0°C° 1.2 mm 12 m/s 751 mmHg 91%
12:00 +2°C° 1.2 mm 11 m/s 750 mmHg 89%
13:00 +2°C° 1.2 mm 11 m/s 749 mmHg 88%
14:00 +3°C° 0.6 mm 11 m/s 749 mmHg 89%
15:00 +3°C° 0.6 mm 10 m/s 748 mmHg 91%
16:00 +5°C° 0.6 mm 9 m/s 747 mmHg 92%
17:00 +5°C° 0.3 mm 9 m/s 747 mmHg 87%
18:00 +5°C° 0.3 mm 9 m/s 747 mmHg 82%
19:00 +5°C° 0.3 mm 10 m/s 747 mmHg 77%
20:00 +3°C° 0 mm 9 m/s 747 mmHg 80%
21:00 +3°C° 0 mm 9 m/s 748 mmHg 82%
22:00 +2°C° 0 mm 9 m/s 749 mmHg 85%
23:00 +2°C° 0 mm 9 m/s 749 mmHg 85%

12 Março, Sexta-feira

Tempo Temperatura Precipitação Vento Pressão Humidade
00:00 +2°C° 0 mm 9 m/s 749 mmHg 85%
01:00 +2°C° 0 mm 9 m/s 749 mmHg 85%
02:00 +2°C° 0 mm 9 m/s 749 mmHg 85%
03:00 +2°C° 0 mm 9 m/s 749 mmHg 84%
04:00 +2°C° 0 mm 9 m/s 749 mmHg 84%
05:00 +2°C° 0.2 mm 10 m/s 749 mmHg 83%
06:00 +2°C° 0.2 mm 10 m/s 750 mmHg 82%
07:00 +2°C° 0.2 mm 11 m/s 750 mmHg 81%
08:00 +2°C° 0.1 mm 11 m/s 751 mmHg 77%
09:00 +2°C° 0.1 mm 11 m/s 751 mmHg 73%
10:00 +3°C° 0.1 mm 11 m/s 752 mmHg 70%
11:00 +3°C° 0 mm 11 m/s 752 mmHg 68%
12:00 +3°C° 0 mm 11 m/s 752 mmHg 67%
13:00 +3°C° 0 mm 11 m/s 753 mmHg 66%
14:00 +3°C° 0.1 mm 10 m/s 753 mmHg 65%
15:00 +5°C° 0.1 mm 9 m/s 752 mmHg 65%
16:00 +5°C° 0.1 mm 8 m/s 752 mmHg 64%
17:00 +4°C° 0.3 mm 8 m/s 752 mmHg 72%
18:00 +4°C° 0.3 mm 8 m/s 752 mmHg 79%
19:00 +2°C° 0.3 mm 8 m/s 752 mmHg 86%
20:00 +2°C° 0.1 mm 8 m/s 752 mmHg 84%
21:00 +2°C° 0.1 mm 8 m/s 751 mmHg 82%
22:00 +2°C° 0.1 mm 8 m/s 751 mmHg 80%
23:00 +2°C° 0.1 mm 9 m/s 751 mmHg 80%
Mostrar mais

Necessitamos do seu Consentimento

A Meteoprog e os seus Fornecedores de Serviços podem armazenar e aceder a dados pessoais como cookies, identificadores do dispositivo ou outras tecnologias semelhantes existentes no seu dispositivo e processar estes dados para personalizar conteúdos e anúncios, assim como funcionalidades nas redes sociais e análise de tráfego.

  • Armazenar e/ou aceder a informações no seu dispositivo

    Os cookies, identificadores do dispositivo ou outras informações podem ser armazenados ou acedidos no seu dispositivo, para os fins acima indicados.

  • Anúncios e conteúdos personalizados, medição de anúncios e conteúdos, dados sobre o público-alvo e desenvolvimento de produtos

    Os anúncios e os conteúdos podem ser personalizados com base num perfil. Podem ser adicionados dados adicionais para uma maior personalização dos anúncios e dos conteúdos. A eficácia dos anúncios e dos conteúdos pode ser medida. Podem ser obtidas informações sobre o público que visualizou os anúncios e os conteúdos. Estes dados podem ser usados para desenvolver ou melhorar sistemas, softwares ou a experiência do utilizador.

Ao clicar em "Eu concordo”, permitirá o uso de cookies, identificadores do dispositivo e web beacons mencionados ou outras tecnologias semelhantes. As configurações do navegador do seu dispositivo podem ser alteradas.

Para certos fins, podem ser invocados interesses legítimos ao invés de consentimento. Pode ler mais informação sobre este assunto na nossa Política de Privacidade e Cookies.